Time,TemperatureF,DewpointF,PressureIn,WindDirection,WindDirectionDegrees,WindSpeedMPH,WindSpeedGustMPH,Humidity,HourlyPrecipIn,Conditions,Clouds,dailyrainin,SoftwareType,DateUTC
2013-02-23 00:00:00,9.5,5.1,28.61,WNW,292,6.9,7.8,82,0.00,,,0.00,VWS V14.01,2013-02-23 06:00:00,
2013-02-23 00:05:00,9.3,4.9,28.61,WNW,292,5.8,8.5,82,0.00,,,0.00,VWS V14.01,2013-02-23 06:05:00,
2013-02-23 00:10:00,8.8,4.4,28.61,WNW,292,6.7,6.7,82,0.00,,,0.00,VWS V14.01,2013-02-23 06:10:00,
2013-02-23 00:15:00,8.8,4.4,28.61,WNW,292,6.5,7.6,82,0.00,,,0.00,VWS V14.01,2013-02-23 06:15:00,
2013-02-23 00:20:00,8.1,3.7,28.61,WNW,292,6.5,8.1,82,0.00,,,0.00,VWS V14.01,2013-02-23 06:20:00,
2013-02-23 00:25:00,8.1,3.7,28.61,WNW,292,4.3,6.0,82,0.00,,,0.00,VWS V14.01,2013-02-23 06:25:00,
2013-02-23 00:30:00,7.5,3.2,28.61,WNW,292,6.3,6.7,82,0.00,,,0.00,VWS V14.01,2013-02-23 06:30:00,
2013-02-23 00:35:00,7.9,3.5,28.61,West,270,6.3,6.5,82,0.00,,,0.00,VWS V14.01,2013-02-23 06:35:00,
2013-02-23 00:40:00,7.7,3.4,28.61,West,270,3.1,6.3,82,0.00,,,0.00,VWS V14.01,2013-02-23 06:40:00,
2013-02-23 00:45:00,7.9,3.5,28.58,WSW,248,8.7,8.7,82,0.00,,,0.00,VWS V14.01,2013-02-23 06:45:00,
2013-02-23 00:50:00,8.1,3.7,28.61,West,270,8.7,8.7,82,0.00,,,0.00,VWS V14.01,2013-02-23 06:50:00,
2013-02-23 00:55:00,9.3,4.9,28.58,West,270,7.4,9.8,82,0.00,,,0.00,VWS V14.01,2013-02-23 06:55:00,
2013-02-23 01:00:00,9.3,4.9,28.61,WNW,292,6.5,9.6,82,0.00,,,0.00,VWS V14.01,2013-02-23 07:00:00,
2013-02-23 01:05:00,8.8,4.4,28.61,WNW,292,6.9,8.1,82,0.00,,,0.00,VWS V14.01,2013-02-23 07:05:00,
2013-02-23 01:10:00,8.2,3.9,28.61,West,270,8.1,8.7,82,0.00,,,0.00,VWS V14.01,2013-02-23 07:10:00,
2013-02-23 01:15:00,8.1,3.7,28.61,WNW,292,6.3,8.5,82,0.00,,,0.00,VWS V14.01,2013-02-23 07:15:00,
2013-02-23 01:20:00,8.1,3.7,28.61,WNW,292,6.5,8.1,82,0.00,,,0.00,VWS V14.01,2013-02-23 07:20:00,
2013-02-23 01:25:00,7.9,3.5,28.61,WNW,292,6.5,6.7,82,0.00,,,0.00,VWS V14.01,2013-02-23 07:25:00,
2013-02-23 01:30:00,9.5,5.1,28.58,West,270,7.8,8.7,82,0.00,,,0.00,VWS V14.01,2013-02-23 07:30:00,
2013-02-23 01:35:00,7.5,3.2,28.61,West,270,5.4,7.4,82,0.00,,,0.00,VWS V14.01,2013-02-23 07:35:00,
2013-02-23 01:40:00,7.0,2.7,28.61,WSW,248,6.0,6.3,82,0.00,,,0.00,VWS V14.01,2013-02-23 07:40:00,
2013-02-23 01:45:00,7.9,3.5,28.58,WSW,248,8.7,8.7,82,0.00,,,0.00,VWS V14.01,2013-02-23 07:45:00,
2013-02-23 01:50:00,6.8,2.5,28.61,West,270,6.0,7.6,82,0.00,,,0.00,VWS V14.01,2013-02-23 07:50:00,
2013-02-23 01:55:00,9.3,4.9,28.58,West,270,7.4,9.8,82,0.00,,,0.00,VWS V14.01,2013-02-23 07:55:00,
2013-02-23 02:00:00,9.0,4.6,28.61,WNW,292,5.4,8.7,82,0.00,,,0.00,VWS V14.01,2013-02-23 08:00:00,
2013-02-23 02:05:00,6.8,2.5,28.58,West,270,7.2,8.5,82,0.00,,,0.00,VWS V14.01,2013-02-23 08:05:00,
2013-02-23 02:10:00,8.2,3.9,28.61,West,270,7.4,7.8,82,0.00,,,0.00,VWS V14.01,2013-02-23 08:10:00,
2013-02-23 02:15:00,9.1,4.8,28.61,West,270,6.7,8.5,82,0.00,,,0.00,VWS V14.01,2013-02-23 08:15:00,
2013-02-23 02:20:00,9.5,5.1,28.61,WSW,248,8.7,8.7,82,0.00,,,0.00,VWS V14.01,2013-02-23 08:20:00,
2013-02-23 02:25:00,9.7,5.3,28.61,WSW,248,6.3,8.7,82,0.00,,,0.00,VWS V14.01,2013-02-23 08:25:00,
2013-02-23 02:30:00,9.5,5.1,28.58,West,270,7.8,8.7,82,0.00,,,0.00,VWS V14.01,2013-02-23 08:30:00,
2013-02-23 02:35:00,8.8,4.4,28.58,WNW,292,7.4,8.5,82,0.00,,,0.00,VWS V14.01,2013-02-23 08:35:00,
2013-02-23 02:40:00,5.9,1.6,28.58,WSW,248,4.0,4.9,82,0.00,,,0.00,VWS V14.01,2013-02-23 08:40:00,
2013-02-23 02:45:00,7.5,3.2,28.61,WNW,292,6.5,7.4,82,0.00,,,0.00,VWS V14.01,2013-02-23 08:45:00,
2013-02-23 02:50:00,6.8,2.5,28.61,West,270,6.0,7.6,82,0.00,,,0.00,VWS V14.01,2013-02-23 08:50:00,
2013-02-23 02:55:00,6.3,2.0,28.61,WNW,292,6.0,6.9,82,0.00,,,0.00,VWS V14.01,2013-02-23 08:55:00,
2013-02-23 03:00:00,4.1,-0.2,28.58,WSW,248,2.7,4.0,82,0.00,,,0.00,VWS V14.01,2013-02-23 09:00:00,
2013-02-23 03:05:00,6.8,2.5,28.58,West,270,7.2,8.5,82,0.00,,,0.00,VWS V14.01,2013-02-23 09:05:00,
2013-02-23 03:10:00,6.1,1.8,28.58,WNW,292,4.0,7.2,82,0.00,,,0.00,VWS V14.01,2013-02-23 09:10:00,
2013-02-23 03:15:00,2.8,-1.4,28.58,WSW,248,1.3,3.1,82,0.00,,,0.00,VWS V14.01,2013-02-23 09:15:00,
2013-02-23 03:20:00,5.2,0.9,28.58,West,270,5.8,6.5,82,0.00,,,0.00,VWS V14.01,2013-02-23 09:20:00,
2013-02-23 03:25:00,5.5,1.2,28.58,WNW,292,6.3,7.2,82,0.00,,,0.00,VWS V14.01,2013-02-23 09:25:00,
2013-02-23 03:30:00,5.9,1.6,28.58,WSW,248,6.5,6.5,82,0.00,,,0.00,VWS V14.01,2013-02-23 09:30:00,
2013-02-23 03:35:00,1.4,-2.8,28.58,WSW,248,2.7,3.1,82,0.00,,,0.00,VWS V14.01,2013-02-23 09:35:00,
2013-02-23 03:40:00,5.9,1.6,28.58,WSW,248,4.0,4.9,82,0.00,,,0.00,VWS V14.01,2013-02-23 09:40:00,
2013-02-23 03:45:00,0.5,-3.7,28.58,West,270,1.3,2.2,82,0.00,,,0.00,VWS V14.01,2013-02-23 09:45:00,
2013-02-23 03:50:00,5.0,0.7,28.58,WSW,248,3.6,4.0,82,0.00,,,0.00,VWS V14.01,2013-02-23 09:50:00,
2013-02-23 03:55:00,4.5,0.2,28.58,WSW,248,2.7,4.0,82,0.00,,,0.00,VWS V14.01,2013-02-23 09:55:00,
2013-02-23 04:00:00,4.1,-0.2,28.58,WSW,248,2.7,4.0,82,0.00,,,0.00,VWS V14.01,2013-02-23 10:00:00,
2013-02-23 04:05:00,3.4,-0.9,28.58,WSW,248,2.9,3.8,82,0.00,,,0.00,VWS V14.01,2013-02-23 10:05:00,
2013-02-23 04:10:00,3.0,-1.2,28.58,West,270,2.9,3.1,82,0.00,,,0.00,VWS V14.01,2013-02-23 10:10:00,
2013-02-23 04:15:00,2.8,-1.4,28.58,WSW,248,1.3,3.1,82,0.00,,,0.00,VWS V14.01,2013-02-23 10:15:00,
2013-02-23 04:20:00,2.1,-2.1,28.58,WSW,248,1.6,2.2,82,0.00,,,0.00,VWS V14.01,2013-02-23 10:20:00,
2013-02-23 04:25:00,0.3,-3.9,28.58,WSW,248,2.2,2.7,82,0.00,,,0.00,VWS V14.01,2013-02-23 10:25:00,
2013-02-23 04:30:00,1.6,-2.6,28.58,WSW,248,2.5,3.1,82,0.00,,,0.00,VWS V14.01,2013-02-23 10:30:00,
2013-02-23 04:35:00,1.4,-2.8,28.58,WSW,248,2.7,3.1,82,0.00,,,0.00,VWS V14.01,2013-02-23 10:35:00,
2013-02-23 04:40:00,0.9,-3.3,28.58,WSW,248,1.6,2.5,82,0.00,,,0.00,VWS V14.01,2013-02-23 10:40:00,
2013-02-23 04:45:00,0.5,-3.7,28.58,West,270,1.3,2.2,82,0.00,,,0.00,VWS V14.01,2013-02-23 10:45:00,
2013-02-23 04:50:00,0.3,-3.9,28.58,WSW,248,2.7,3.4,82,0.00,,,0.00,VWS V14.01,2013-02-23 10:50:00,
2013-02-23 04:55:00,0.5,-3.7,28.58,SW,225,2.7,3.4,82,0.00,,,0.00,VWS V14.01,2013-02-23 10:55:00,
2013-02-23 05:00:00,0.9,-3.3,28.58,WSW,248,1.6,2.5,82,0.00,,,0.00,VWS V14.01,2013-02-23 11:00:00,
2013-02-23 05:05:00,0.7,-3.5,28.58,WSW,248,1.3,2.9,82,0.00,,,0.00,VWS V14.01,2013-02-23 11:05:00,
2013-02-23 05:10:00,0.3,-3.9,28.58,SW,225,2.0,2.5,82,0.00,,,0.00,VWS V14.01,2013-02-23 11:10:00,
2013-02-23 05:15:00,0.7,-3.5,28.58,WSW,248,2.0,2.9,82,0.00,,,0.00,VWS V14.01,2013-02-23 11:15:00,
2013-02-23 05:20:00,0.7,-3.5,28.58,West,270,0.0,2.0,82,0.00,,,0.00,VWS V14.01,2013-02-23 11:20:00,
2013-02-23 05:25:00,-0.6,-4.8,28.58,SSW,202,0.0,0.9,82,0.00,,,0.00,VWS V14.01,2013-02-23 11:25:00,
2013-02-23 05:30:00,0.7,-3.5,28.58,WSW,248,1.6,2.7,82,0.00,,,0.00,VWS V14.01,2013-02-23 11:30:00,
2013-02-23 05:35:00,-0.6,-4.8,28.58,SSW,202,1.3,2.0,82,0.00,,,0.00,VWS V14.01,2013-02-23 11:35:00,
2013-02-23 05:40:00,0.9,-3.3,28.58,WSW,248,1.6,2.5,82,0.00,,,0.00,VWS V14.01,2013-02-23 11:40:00,
2013-02-23 05:45:00,-0.8,-4.9,28.58,SSW,202,0.0,1.6,82,0.00,,,0.00,VWS V14.01,2013-02-23 11:45:00,
2013-02-23 05:50:00,0.7,-3.5,28.58,WSW,248,2.0,2.7,82,0.00,,,0.00,VWS V14.01,2013-02-23 11:50:00,
2013-02-23 05:55:00,0.9,-3.3,28.58,WSW,248,1.1,2.7,82,0.00,,,0.00,VWS V14.01,2013-02-23 11:55:00,
2013-02-23 06:00:00,0.3,-3.9,28.58,SSW,202,1.3,1.3,82,0.00,,,0.00,VWS V14.01,2013-02-23 12:00:00,
2013-02-23 06:05:00,0.5,-3.7,28.58,SW,225,2.2,2.5,82,0.00,,,0.00,VWS V14.01,2013-02-23 12:05:00,
2013-02-23 06:10:00,1.8,-2.5,28.58,SSW,202,1.3,1.6,82,0.00,,,0.00,VWS V14.01,2013-02-23 12:10:00,
2013-02-23 06:15:00,0.3,-3.9,28.58,WSW,248,0.9,1.6,82,0.00,,,0.00,VWS V14.01,2013-02-23 12:15:00,
2013-02-23 06:20:00,-0.2,-4.4,28.58,SSW,202,0.9,2.0,82,0.00,,,0.00,VWS V14.01,2013-02-23 12:20:00,
2013-02-23 06:25:00,3.6,-0.7,28.58,SW,225,1.3,2.5,82,0.00,,,0.00,VWS V14.01,2013-02-23 12:25:00,
2013-02-23 06:30:00,-0.6,-4.8,28.58,SSW,202,0.0,1.1,82,0.00,,,0.00,VWS V14.01,2013-02-23 12:30:00,
2013-02-23 06:35:00,4.1,-0.2,28.58,SW,225,1.6,2.0,82,0.00,,,0.00,VWS V14.01,2013-02-23 12:35:00,
2013-02-23 06:40:00,-0.6,-4.8,28.58,SSW,202,1.6,2.0,82,0.00,,,0.00,VWS V14.01,2013-02-23 12:40:00,
2013-02-23 06:45:00,5.2,0.9,28.58,SW,225,2.0,2.2,82,0.00,,,0.00,VWS V14.01,2013-02-23 12:45:00,
2013-02-23 06:50:00,-0.4,-4.6,28.58,SSE,158,2.0,2.0,82,0.00,,,0.00,VWS V14.01,2013-02-23 12:50:00,
2013-02-23 06:55:00,6.4,2.1,28.58,SW,225,1.3,2.0,82,0.00,,,0.00,VWS V14.01,2013-02-23 12:55:00,
2013-02-23 07:00:00,0.3,-3.9,28.58,SSW,202,1.3,1.3,82,0.00,,,0.00,VWS V14.01,2013-02-23 13:00:00,
2013-02-23 07:05:00,7.9,3.5,28.58,WSW,248,1.1,1.6,82,0.00,,,0.00,VWS V14.01,2013-02-23 13:05:00,
2013-02-23 07:10:00,1.8,-2.5,28.58,SSW,202,1.3,1.6,82,0.00,,,0.00,VWS V14.01,2013-02-23 13:10:00,
2013-02-23 07:15:00,1.8,-2.5,28.58,SW,225,0.0,1.6,82,0.00,,,0.00,VWS V14.01,2013-02-23 13:15:00,
2013-02-23 07:20:00,9.3,4.9,28.58,WSW,248,0.0,1.3,82,0.00,,,0.00,VWS V14.01,2013-02-23 13:20:00,
2013-02-23 07:25:00,3.6,-0.7,28.58,SW,225,1.3,2.5,82,0.00,,,0.00,VWS V14.01,2013-02-23 13:25:00,
2013-02-23 07:30:00,3.7,-0.5,28.58,SW,225,1.6,1.6,82,0.00,,,0.00,VWS V14.01,2013-02-23 13:30:00,
2013-02-23 07:35:00,4.1,-0.2,28.58,SW,225,1.6,2.0,82,0.00,,,0.00,VWS V14.01,2013-02-23 13:35:00,
2013-02-23 07:40:00,4.6,0.4,28.58,SSW,202,1.6,2.0,82,0.00,,,0.00,VWS V14.01,2013-02-23 13:40:00,
2013-02-23 07:45:00,15.4,10.7,28.58,WNW,292,2.2,2.2,81,0.00,,,0.00,VWS V14.01,2013-02-23 13:45:00,
2013-02-23 07:50:00,5.9,1.6,28.58,SW,225,1.6,2.2,82,0.00,,,0.00,VWS V14.01,2013-02-23 13:50:00,
2013-02-23 07:55:00,16.5,10.9,28.58,WNW,292,1.3,1.6,78,0.00,,,0.00,VWS V14.01,2013-02-23 13:55:00,
2013-02-23 08:00:00,7.2,2.8,28.58,SW,225,1.6,1.6,82,0.00,,,0.00,VWS V14.01,2013-02-23 14:00:00,
2013-02-23 08:05:00,7.9,3.5,28.58,WSW,248,1.1,1.6,82,0.00,,,0.00,VWS V14.01,2013-02-23 14:05:00,
2013-02-23 08:10:00,8.6,4.2,28.58,WNW,292,0.0,1.3,82,0.00,,,0.00,VWS V14.01,2013-02-23 14:10:00,
2013-02-23 08:15:00,8.8,4.4,28.58,WSW,248,1.3,1.3,82,0.00,,,0.00,VWS V14.01,2013-02-23 14:15:00,
2013-02-23 08:20:00,20.3,14.3,28.58,SSW,202,0.0,1.6,77,0.00,,,0.00,VWS V14.01,2013-02-23 14:20:00,
2013-02-23 08:25:00,9.7,5.3,28.58,WSW,248,0.0,1.3,82,0.00,,,0.00,VWS V14.01,2013-02-23 14:25:00,
2013-02-23 08:30:00,21.4,10.4,28.58,SSW,202,0.0,1.3,62,0.00,,,0.00,VWS V14.01,2013-02-23 14:30:00,
2013-02-23 08:35:00,12.7,8.3,28.58,WSW,248,0.0,1.1,82,0.00,,,0.00,VWS V14.01,2013-02-23 14:35:00,
2013-02-23 08:40:00,14.2,9.2,28.58,NNW,338,0.0,1.1,80,0.00,,,0.00,VWS V14.01,2013-02-23 14:40:00,
2013-02-23 08:45:00,15.4,10.7,28.58,WNW,292,2.2,2.2,81,0.00,,,0.00,VWS V14.01,2013-02-23 14:45:00,
2013-02-23 08:50:00,15.8,10.5,28.58,WNW,292,1.3,2.2,79,0.00,,,0.00,VWS V14.01,2013-02-23 14:50:00,
2013-02-23 08:55:00,25.2,8.2,28.58,SSW,202,2.0,2.5,48,0.00,,,0.00,VWS V14.01,2013-02-23 14:55:00,
2013-02-23 09:00:00,17.8,12.1,28.58,WNW,292,1.1,1.6,78,0.00,,,0.00,VWS V14.01,2013-02-23 15:00:00,
2013-02-23 09:05:00,26.2,7.8,28.58,SSW,202,1.6,3.6,45,0.00,,,0.00,VWS V14.01,2013-02-23 15:05:00,
2013-02-23 09:10:00,18.9,13.1,28.58,WSW,248,1.3,2.0,78,0.00,,,0.00,VWS V14.01,2013-02-23 15:10:00,
2013-02-23 09:15:00,19.4,13.7,28.58,SW,225,0.9,2.0,78,0.00,,,0.00,VWS V14.01,2013-02-23 15:15:00,
2013-02-23 09:20:00,20.3,14.3,28.58,SSW,202,0.0,1.6,77,0.00,,,0.00,VWS V14.01,2013-02-23 15:20:00,
2013-02-23 09:25:00,20.1,10.6,28.58,SSW,202,0.9,1.1,66,0.00,,,0.00,VWS V14.01,2013-02-23 15:25:00,
2013-02-23 09:30:00,21.4,10.4,28.58,SSW,202,0.0,1.3,62,0.00,,,0.00,VWS V14.01,2013-02-23 15:30:00,
2013-02-23 09:35:00,29.3,9.1,28.58,SW,225,4.9,5.4,42,0.00,,,0.00,VWS V14.01,2013-02-23 15:35:00,
2013-02-23 09:40:00,23.0,8.9,28.58,SSW,202,0.9,2.5,54,0.00,,,0.00,VWS V14.01,2013-02-23 15:40:00,
2013-02-23 09:45:00,24.1,9.4,28.58,South,180,2.0,3.1,53,0.00,,,0.00,VWS V14.01,2013-02-23 15:45:00,
2013-02-23 09:50:00,25.5,10.8,28.58,SSW,202,2.0,3.1,53,0.00,,,0.00,VWS V14.01,2013-02-23 15:50:00,
2013-02-23 09:55:00,25.2,8.2,28.58,SSW,202,2.0,2.5,48,0.00,,,0.00,VWS V14.01,2013-02-23 15:55:00,
2013-02-23 10:00:00,25.7,8.3,28.58,SSW,202,2.0,2.9,47,0.00,,,0.00,VWS V14.01,2013-02-23 16:00:00,
2013-02-23 10:05:00,35.1,13.8,28.58,SSW,202,4.0,5.6,41,0.00,,,0.00,VWS V14.01,2013-02-23 16:05:00,
2013-02-23 10:10:00,26.6,7.6,28.58,SSW,202,3.4,4.0,44,0.00,,,0.00,VWS V14.01,2013-02-23 16:10:00,
2013-02-23 10:15:00,36.9,14.2,28.58,SSE,158,5.8,6.3,39,0.00,,,0.00,VWS V14.01,2013-02-23 16:15:00,
2013-02-23 10:20:00,28.0,8.4,28.58,SSW,202,4.3,4.3,43,0.00,,,0.00,VWS V14.01,2013-02-23 16:20:00,
2013-02-23 10:25:00,27.9,7.8,28.58,SSW,202,4.0,5.6,42,0.00,,,0.00,VWS V14.01,2013-02-23 16:25:00,
2013-02-23 10:30:00,28.0,7.9,28.58,SSW,202,4.0,4.9,42,0.00,,,0.00,VWS V14.01,2013-02-23 16:30:00,
2013-02-23 10:35:00,29.3,9.1,28.58,SW,225,4.9,5.4,42,0.00,,,0.00,VWS V14.01,2013-02-23 16:35:00,
2013-02-23 10:40:00,38.5,15.1,28.58,SSW,202,5.4,6.5,38,0.00,,,0.00,VWS V14.01,2013-02-23 16:40:00,
2013-02-23 10:45:00,30.9,10.0,28.61,SSW,202,4.0,4.9,41,0.00,,,0.00,VWS V14.01,2013-02-23 16:45:00,
2013-02-23 10:50:00,37.8,13.2,28.58,South,180,7.6,8.7,36,0.00,,,0.00,VWS V14.01,2013-02-23 16:50:00,
2013-02-23 10:55:00,32.9,12.3,28.61,SSW,202,2.5,4.3,42,0.00,,,0.00,VWS V14.01,2013-02-23 16:55:00,
2013-02-23 11:00:00,35.1,13.8,28.58,SSW,202,3.4,4.0,41,0.00,,,0.00,VWS V14.01,2013-02-23 17:00:00,
2013-02-23 11:05:00,37.8,13.2,28.58,SSW,202,6.5,7.8,36,0.00,,,0.00,VWS V14.01,2013-02-23 17:05:00,
2013-02-23 11:10:00,35.4,13.5,28.58,South,180,4.9,5.4,40,0.00,,,0.00,VWS V14.01,2013-02-23 17:10:00,
2013-02-23 11:15:00,36.9,14.2,28.58,SSE,158,5.8,6.3,39,0.00,,,0.00,VWS V14.01,2013-02-23 17:15:00,
2013-02-23 11:20:00,37.0,13.2,28.58,SSW,202,6.0,6.5,37,0.00,,,0.00,VWS V14.01,2013-02-23 17:20:00,
2013-02-23 11:25:00,38.1,15.4,28.58,SSE,158,6.5,6.5,39,0.00,,,0.00,VWS V14.01,2013-02-23 17:25:00,
2013-02-23 11:30:00,37.6,13.7,28.58,SSE,158,4.9,7.4,37,0.00,,,0.00,VWS V14.01,2013-02-23 17:30:00,
2013-02-23 11:35:00,39.2,15.7,28.58,SSE,158,7.4,7.6,38,0.00,,,0.00,VWS V14.01,2013-02-23 17:35:00,
2013-02-23 11:40:00,38.5,15.1,28.58,SSW,202,5.4,6.5,38,0.00,,,0.00,VWS V14.01,2013-02-23 17:40:00,
2013-02-23 11:45:00,38.1,14.2,28.58,SSW,202,5.6,7.6,37,0.00,,,0.00,VWS V14.01,2013-02-23 17:45:00,
2013-02-23 11:50:00,39.6,14.8,28.58,South,180,7.4,8.1,36,0.00,,,0.00,VWS V14.01,2013-02-23 17:50:00,
2013-02-23 11:55:00,38.7,14.0,28.58,South,180,6.5,7.6,36,0.00,,,0.00,VWS V14.01,2013-02-23 17:55:00,
2013-02-23 12:00:00,39.0,14.3,28.55,South,180,6.9,7.8,36,0.00,,,0.00,VWS V14.01,2013-02-23 18:00:00,
2013-02-23 12:05:00,37.8,13.2,28.58,SSW,202,6.5,7.8,36,0.00,,,0.00,VWS V14.01,2013-02-23 18:05:00,
2013-02-23 12:10:00,37.0,13.2,28.58,SSW,202,5.6,7.6,37,0.00,,,0.00,VWS V14.01,2013-02-23 18:10:00,
2013-02-23 12:15:00,37.2,13.4,28.58,SSW,202,4.0,7.6,37,0.00,,,0.00,VWS V14.01,2013-02-23 18:15:00,
2013-02-23 12:20:00,37.0,13.2,28.58,SSW,202,6.0,6.5,37,0.00,,,0.00,VWS V14.01,2013-02-23 18:20:00,
2013-02-23 12:25:00,39.6,15.4,28.55,South,180,5.6,6.5,37,0.00,,,0.00,VWS V14.01,2013-02-23 18:25:00,
2013-02-23 12:30:00,37.9,14.0,28.58,SSW,202,4.3,5.8,37,0.00,,,0.00,VWS V14.01,2013-02-23 18:30:00,
2013-02-23 12:35:00,39.2,15.7,28.58,SSE,158,7.4,7.6,38,0.00,,,0.00,VWS V14.01,2013-02-23 18:35:00,
2013-02-23 12:40:00,39.6,15.4,28.58,South,180,4.9,7.4,37,0.00,,,0.00,VWS V14.01,2013-02-23 18:40:00,
2013-02-23 12:45:00,39.9,15.1,28.58,South,180,6.3,7.4,36,0.00,,,0.00,VWS V14.01,2013-02-23 18:45:00,
2013-02-23 12:50:00,39.6,14.8,28.58,South,180,7.4,8.1,36,0.00,,,0.00,VWS V14.01,2013-02-23 18:50:00,
2013-02-23 12:55:00,39.4,14.7,28.58,South,180,7.8,8.1,36,0.00,,,0.00,VWS V14.01,2013-02-23 18:55:00,
2013-02-23 13:00:00,40.3,15.5,28.55,SSE,158,5.6,8.7,36,0.00,,,0.00,VWS V14.01,2013-02-23 19:00:00,
2013-02-23 13:05:00,38.7,14.0,28.55,SSW,202,4.9,7.4,36,0.00,,,0.00,VWS V14.01,2013-02-23 19:05:00,
2013-02-23 13:10:00,40.1,15.3,28.55,SE,135,4.3,8.7,36,0.00,,,0.00,VWS V14.01,2013-02-23 19:10:00,
2013-02-23 13:15:00,39.6,15.4,28.55,SSE,158,5.8,7.4,37,0.00,,,0.00,VWS V14.01,2013-02-23 19:15:00,
2013-02-23 13:20:00,39.6,14.8,28.55,South,180,6.5,6.9,36,0.00,,,0.00,VWS V14.01,2013-02-23 19:20:00,
2013-02-23 13:25:00,39.6,15.4,28.55,South,180,5.6,6.5,37,0.00,,,0.00,VWS V14.01,2013-02-23 19:25:00,
2013-02-23 13:30:00,39.9,15.8,28.55,SSW,202,4.0,6.3,37,0.00,,,0.00,VWS V14.01,2013-02-23 19:30:00,
2013-02-23 13:35:00,40.3,16.1,28.55,ESE,112,3.8,5.6,37,0.00,,,0.00,VWS V14.01,2013-02-23 19:35:00,
2013-02-23 13:40:00,39.9,15.1,28.55,SE,135,5.6,6.5,36,0.00,,,0.00,VWS V14.01,2013-02-23 19:40:00,
2013-02-23 13:45:00,40.6,16.4,28.55,SSE,158,3.8,5.8,37,0.00,,,0.00,VWS V14.01,2013-02-23 19:45:00,
2013-02-23 13:50:00,40.3,15.5,28.55,SSE,158,4.7,6.3,36,0.00,,,0.00,VWS V14.01,2013-02-23 19:50:00,
2013-02-23 13:55:00,40.6,16.4,28.55,South,180,4.9,6.3,37,0.00,,,0.00,VWS V14.01,2013-02-23 19:55:00,
2013-02-23 14:00:00,40.3,15.5,28.55,SSE,158,5.6,8.7,36,0.00,,,0.00,VWS V14.01,2013-02-23 20:00:00,
2013-02-23 14:05:00,40.6,16.4,28.55,South,180,5.8,7.2,37,0.00,,,0.00,VWS V14.01,2013-02-23 20:05:00,
2013-02-23 14:10:00,40.1,15.3,28.55,SE,135,4.3,8.7,36,0.00,,,0.00,VWS V14.01,2013-02-23 20:10:00,
2013-02-23 14:15:00,39.2,16.3,28.55,ESE,112,6.3,7.4,39,0.00,,,0.00,VWS V14.01,2013-02-23 20:15:00,
2013-02-23 14:20:00,41.0,16.1,28.55,SSE,158,4.3,6.3,36,0.00,,,0.00,VWS V14.01,2013-02-23 20:20:00,
2013-02-23 14:25:00,41.7,16.8,28.55,SSE,158,4.0,6.0,36,0.00,,,0.00,VWS V14.01,2013-02-23 20:25:00,
2013-02-23 14:30:00,41.4,16.4,28.55,ESE,112,5.8,7.2,36,0.00,,,0.00,VWS V14.01,2013-02-23 20:30:00,
2013-02-23 14:35:00,41.5,16.6,28.55,ESE,112,5.8,6.3,36,0.00,,,0.00,VWS V14.01,2013-02-23 20:35:00,
2013-02-23 14:40:00,41.0,16.1,28.55,ESE,112,4.3,7.2,36,0.00,,,0.00,VWS V14.01,2013-02-23 20:40:00,
2013-02-23 14:45:00,37.6,14.9,28.55,ESE,112,7.6,9.0,39,0.00,,,0.00,VWS V14.01,2013-02-23 20:45:00,
2013-02-23 14:50:00,40.1,15.9,28.55,ESE,112,4.9,6.7,37,0.00,,,0.00,VWS V14.01,2013-02-23 20:50:00,
2013-02-23 14:55:00,39.6,15.4,28.55,ESE,112,4.9,7.8,37,0.00,,,0.00,VWS V14.01,2013-02-23 20:55:00,
2013-02-23 15:00:00,39.0,15.6,28.52,East,90,4.3,7.8,38,0.00,,,0.00,VWS V14.01,2013-02-23 21:00:00,
2013-02-23 15:05:00,38.7,15.9,28.52,ESE,112,6.5,7.6,39,0.00,,,0.00,VWS V14.01,2013-02-23 21:05:00,
2013-02-23 15:10:00,38.7,15.9,28.52,SE,135,6.3,8.1,39,0.00,,,0.00,VWS V14.01,2013-02-23 21:10:00,
2013-02-23 15:15:00,39.2,16.3,28.55,ESE,112,6.3,7.4,39,0.00,,,0.00,VWS V14.01,2013-02-23 21:15:00,
2013-02-23 15:20:00,36.3,14.9,28.52,ESE,112,7.8,8.7,41,0.00,,,0.00,VWS V14.01,2013-02-23 21:20:00,
2013-02-23 15:25:00,39.0,16.2,28.55,SE,135,6.0,8.7,39,0.00,,,0.00,VWS V14.01,2013-02-23 21:25:00,
2013-02-23 15:30:00,35.4,14.6,28.52,ESE,112,4.9,8.5,42,0.00,,,0.00,VWS V14.01,2013-02-23 21:30:00,
2013-02-23 15:35:00,39.4,16.5,28.52,SE,135,4.9,7.6,39,0.00,,,0.00,VWS V14.01,2013-02-23 21:35:00,
2013-02-23 15:40:00,39.2,16.3,28.52,ESE,112,7.6,8.1,39,0.00,,,0.00,VWS V14.01,2013-02-23 21:40:00,
2013-02-23 15:45:00,37.6,14.9,28.55,ESE,112,7.6,9.0,39,0.00,,,0.00,VWS V14.01,2013-02-23 21:45:00,
2013-02-23 15:50:00,37.2,15.1,28.55,ESE,112,8.7,9.6,40,0.00,,,0.00,VWS V14.01,2013-02-23 21:50:00,
2013-02-23 15:55:00,33.6,13.5,28.52,ESE,112,5.6,6.5,43,0.00,,,0.00,VWS V14.01,2013-02-23 21:55:00,
2013-02-23 16:00:00,36.7,15.2,28.55,SE,135,8.5,8.7,41,0.00,,,0.00,VWS V14.01,2013-02-23 22:00:00,
2013-02-23 16:05:00,36.5,15.1,28.55,ESE,112,7.6,8.7,41,0.00,,,0.00,VWS V14.01,2013-02-23 22:05:00,
2013-02-23 16:10:00,37.2,15.7,28.55,SE,135,5.8,7.6,41,0.00,,,0.00,VWS V14.01,2013-02-23 22:10:00,
2013-02-23 16:15:00,37.2,15.7,28.52,ESE,112,6.3,6.5,41,0.00,,,0.00,VWS V14.01,2013-02-23 22:15:00,
2013-02-23 16:20:00,36.3,14.9,28.52,ESE,112,7.8,8.7,41,0.00,,,0.00,VWS V14.01,2013-02-23 22:20:00,
2013-02-23 16:25:00,35.6,14.2,28.52,ESE,112,7.6,8.1,41,0.00,,,0.00,VWS V14.01,2013-02-23 22:25:00,
2013-02-23 16:30:00,26.2,10.6,28.52,ESE,112,6.0,6.5,51,0.00,,,0.00,VWS V14.01,2013-02-23 22:30:00,
2013-02-23 16:35:00,35.2,14.5,28.52,ESE,112,6.5,7.2,42,0.00,,,0.00,VWS V14.01,2013-02-23 22:35:00,
2013-02-23 16:40:00,35.1,14.3,28.52,SE,135,7.4,7.4,42,0.00,,,0.00,VWS V14.01,2013-02-23 22:40:00,
2013-02-23 16:45:00,34.5,13.8,28.52,ESE,112,6.5,7.6,42,0.00,,,0.00,VWS V14.01,2013-02-23 22:45:00,
2013-02-23 16:50:00,23.0,8.9,28.55,ESE,112,4.0,5.4,54,0.00,,,0.00,VWS V14.01,2013-02-23 22:50:00,
2013-02-23 16:55:00,33.6,13.5,28.52,ESE,112,5.6,6.5,43,0.00,,,0.00,VWS V14.01,2013-02-23 22:55:00,
2013-02-23 17:00:00,33.4,13.4,28.52,ESE,112,4.9,6.3,43,0.00,,,0.00,VWS V14.01,2013-02-23 23:00:00,
2013-02-23 17:05:00,19.8,8.5,28.52,ESE,112,4.0,5.8,61,0.00,,,0.00,VWS V14.01,2013-02-23 23:05:00,
2013-02-23 17:10:00,32.0,12.1,28.52,ESE,112,4.5,5.4,43,0.00,,,0.00,VWS V14.01,2013-02-23 23:10:00,
2013-02-23 17:15:00,29.5,10.8,28.52,ESE,112,6.0,6.3,45,0.00,,,0.00,VWS V14.01,2013-02-23 23:15:00,
2013-02-23 17:20:00,27.0,10.4,28.52,ESE,112,6.0,7.2,49,0.00,,,0.00,VWS V14.01,2013-02-23 23:20:00,
2013-02-23 17:25:00,26.1,10.4,28.52,ESE,112,6.5,6.5,51,0.00,,,0.00,VWS V14.01,2013-02-23 23:25:00,
2013-02-23 17:30:00,26.2,10.6,28.52,ESE,112,6.0,6.5,51,0.00,,,0.00,VWS V14.01,2013-02-23 23:30:00,
2013-02-23 17:35:00,26.1,10.9,28.52,ESE,112,5.4,6.0,52,0.00,,,0.00,VWS V14.01,2013-02-23 23:35:00,
2013-02-23 17:40:00,13.5,2.5,28.52,ENE,68,4.3,4.3,61,0.00,,,0.00,VWS V14.01,2013-02-23 23:40:00,
2013-02-23 17:45:00,24.8,10.5,28.55,ESE,112,5.4,6.7,54,0.00,,,0.00,VWS V14.01,2013-02-23 23:45:00,
2013-02-23 17:50:00,23.0,8.9,28.55,ESE,112,4.0,5.4,54,0.00,,,0.00,VWS V14.01,2013-02-23 23:50:00,
2013-02-23 17:55:00,21.7,8.5,28.55,ESE,112,3.8,5.6,56,0.00,,,0.00,VWS V14.01,2013-02-23 23:55:00,
2013-02-23 18:00:00,20.7,7.8,28.52,ESE,112,4.3,5.6,57,0.00,,,0.00,VWS V14.01,2013-02-24 00:00:00,
2013-02-23 18:05:00,19.8,8.5,28.52,ESE,112,4.0,5.8,61,0.00,,,0.00,VWS V14.01,2013-02-24 00:05:00,
2013-02-23 18:10:00,10.4,-0.4,28.52,ESE,112,4.0,4.0,61,0.00,,,0.00,VWS V14.01,2013-02-24 00:10:00,
2013-02-23 18:15:00,18.5,8.0,28.52,ESE,112,4.0,6.3,63,0.00,,,0.00,VWS V14.01,2013-02-24 00:15:00,
2013-02-23 18:20:00,17.8,7.3,28.52,ESE,112,5.4,6.0,63,0.00,,,0.00,VWS V14.01,2013-02-24 00:20:00,
2013-02-23 18:25:00,10.4,-0.4,28.52,ESE,112,5.6,5.6,61,0.00,,,0.00,VWS V14.01,2013-02-24 00:25:00,
2013-02-23 18:30:00,16.5,6.8,28.52,ENE,68,4.0,5.4,65,0.00,,,0.00,VWS V14.01,2013-02-24 00:30:00,
2013-02-23 18:35:00,14.9,4.2,28.52,SE,135,2.9,4.9,62,0.00,,,0.00,VWS V14.01,2013-02-24 00:35:00,
2013-02-23 18:40:00,13.5,2.5,28.52,ENE,68,4.3,4.3,61,0.00,,,0.00,VWS V14.01,2013-02-24 00:40:00,
2013-02-23 18:45:00,13.1,2.2,28.52,ESE,112,3.1,6.0,61,0.00,,,0.00,VWS V14.01,2013-02-24 00:45:00,
2013-02-23 18:50:00,13.3,2.4,28.52,ENE,68,2.5,5.4,61,0.00,,,0.00,VWS V14.01,2013-02-24 00:50:00,
2013-02-23 18:55:00,13.3,2.4,28.52,ESE,112,2.9,3.4,61,0.00,,,0.00,VWS V14.01,2013-02-24 00:55:00,
2013-02-23 19:00:00,11.8,1.0,28.52,ESE,112,2.9,3.6,61,0.00,,,0.00,VWS V14.01,2013-02-24 01:00:00,
2013-02-23 19:05:00,10.6,-0.2,28.52,ESE,112,2.9,3.4,61,0.00,,,0.00,VWS V14.01,2013-02-24 01:05:00,
2013-02-23 19:10:00,10.4,-0.4,28.52,ESE,112,4.0,4.0,61,0.00,,,0.00,VWS V14.01,2013-02-24 01:10:00,
2013-02-23 19:15:00,10.0,-0.7,28.52,ESE,112,3.4,4.0,61,0.00,,,0.00,VWS V14.01,2013-02-24 01:15:00,
2013-02-23 19:20:00,9.3,-1.4,28.52,ESE,112,4.0,4.0,61,0.00,,,0.00,VWS V14.01,2013-02-24 01:20:00,
2013-02-23 19:25:00,10.4,-0.4,28.52,ESE,112,5.6,5.6,61,0.00,,,0.00,VWS V14.01,2013-02-24 01:25:00,
2013-02-23 19:30:00,10.2,-0.5,28.55,ESE,112,4.3,5.6,61,0.00,,,0.00,VWS V14.01,2013-02-24 01:30:00,
2013-02-23 19:35:00,9.5,-1.2,28.55,ESE,112,3.1,4.3,61,0.00,,,0.00,VWS V14.01,2013-02-24 01:35:00,
2013-02-23 19:40:00,9.1,-1.6,28.55,ESE,112,3.1,3.4,61,0.00,,,0.00,VWS V14.01,2013-02-24 01:40:00,
2013-02-23 19:45:00,9.0,-1.7,28.55,SE,135,3.4,3.6,61,0.00,,,0.00,VWS V14.01,2013-02-24 01:45:00,
2013-02-23 19:50:00,9.3,-1.4,28.55,SE,135,3.6,4.0,61,0.00,,,0.00,VWS V14.01,2013-02-24 01:50:00,
2013-02-23 19:55:00,9.5,-1.2,28.55,ESE,112,3.6,3.8,61,0.00,,,0.00,VWS V14.01,2013-02-24 01:55:00,
2013-02-23 20:00:00,10.4,-0.4,28.55,ESE,112,4.3,4.3,61,0.00,,,0.00,VWS V14.01,2013-02-24 02:00:00,
2013-02-23 20:05:00,8.8,-1.9,28.55,ESE,112,0.0,0.0,61,0.00,,,0.00,VWS V14.01,2013-02-24 02:05:00,
2013-02-23 20:10:00,9.9,-0.9,28.55,SE,135,2.5,3.1,61,0.00,,,0.00,VWS V14.01,2013-02-24 02:10:00,
2013-02-23 20:15:00,9.9,-0.9,28.55,ESE,112,3.4,3.4,61,0.00,,,0.00,VWS V14.01,2013-02-24 02:15:00,
2013-02-23 20:20:00,10.9,0.1,28.55,ESE,112,3.1,3.6,61,0.00,,,0.00,VWS V14.01,2013-02-24 02:20:00,
2013-02-23 20:25:00,11.5,0.6,28.55,ESE,112,2.9,3.4,61,0.00,,,0.00,VWS V14.01,2013-02-24 02:25:00,
2013-02-23 20:30:00,11.8,1.0,28.55,ESE,112,4.0,4.3,61,0.00,,,0.00,VWS V14.01,2013-02-24 02:30:00,
2013-02-23 20:35:00,12.6,1.7,28.55,ESE,112,3.6,4.9,61,0.00,,,0.00,VWS V14.01,2013-02-24 02:35:00,
2013-02-23 20:40:00,12.0,1.2,28.55,ESE,112,1.6,4.3,61,0.00,,,0.00,VWS V14.01,2013-02-24 02:40:00,
2013-02-23 20:45:00,10.8,0.0,28.55,ESE,112,2.5,2.7,61,0.00,,,0.00,VWS V14.01,2013-02-24 02:45:00,
2013-02-23 20:50:00,9.3,-1.4,28.55,SE,135,0.0,2.5,61,0.00,,,0.00,VWS V14.01,2013-02-24 02:50:00,
2013-02-23 20:55:00,8.8,-1.9,28.55,SE,135,0.0,0.0,61,0.00,,,0.00,VWS V14.01,2013-02-24 02:55:00,
2013-02-23 21:00:00,8.8,-1.9,28.55,SE,135,0.0,0.0,61,0.00,,,0.00,VWS V14.01,2013-02-24 03:00:00,
2013-02-23 21:05:00,8.8,-1.9,28.55,ESE,112,0.0,0.0,61,0.00,,,0.00,VWS V14.01,2013-02-24 03:05:00,
2013-02-23 21:10:00,9.0,-1.7,28.55,ENE,68,2.0,2.0,61,0.00,,,0.00,VWS V14.01,2013-02-24 03:10:00,
2013-02-23 21:15:00,8.1,-2.6,28.55,ENE,68,3.4,3.8,61,0.00,,,0.00,VWS V14.01,2013-02-24 03:15:00,
2013-02-23 21:20:00,7.9,-2.8,28.55,ENE,68,2.9,3.8,61,0.00,,,0.00,VWS V14.01,2013-02-24 03:20:00,
2013-02-23 21:25:00,7.7,-2.9,28.55,ENE,68,2.0,3.4,61,0.00,,,0.00,VWS V14.01,2013-02-24 03:25:00,
2013-02-23 21:30:00,7.7,-2.9,28.55,ENE,68,1.6,2.0,61,0.00,,,0.00,VWS V14.01,2013-02-24 03:30:00,
2013-02-23 21:35:00,7.7,-2.9,28.55,ENE,68,3.1,3.4,61,0.00,,,0.00,VWS V14.01,2013-02-24 03:35:00,
2013-02-23 21:40:00,6.3,-4.3,28.55,ENE,68,3.4,3.6,61,0.00,,,0.00,VWS V14.01,2013-02-24 03:40:00,
2013-02-23 21:45:00,7.7,-2.9,28.58,ENE,68,3.1,3.6,61,0.00,,,0.00,VWS V14.01,2013-02-24 03:45:00,
2013-02-23 21:50:00,7.7,-2.9,28.58,ENE,68,4.0,4.0,61,0.00,,,0.00,VWS V14.01,2013-02-24 03:50:00,
2013-02-23 21:55:00,7.5,-3.1,28.58,ENE,68,3.4,4.3,61,0.00,,,0.00,VWS V14.01,2013-02-24 03:55:00,
2013-02-23 22:00:00,7.2,-3.4,28.58,ENE,68,3.4,3.8,61,0.00,,,0.00,VWS V14.01,2013-02-24 04:00:00,
2013-02-23 22:05:00,7.2,-3.4,28.58,ENE,68,3.4,3.4,61,0.00,,,0.00,VWS V14.01,2013-02-24 04:05:00,
2013-02-23 22:10:00,7.2,-3.4,28.58,ENE,68,2.7,3.4,61,0.00,,,0.00,VWS V14.01,2013-02-24 04:10:00,
2013-02-23 22:15:00,7.2,-3.4,28.58,ENE,68,2.5,2.9,61,0.00,,,0.00,VWS V14.01,2013-02-24 04:15:00,
2013-02-23 22:20:00,7.2,-3.4,28.58,ENE,68,2.9,2.9,61,0.00,,,0.00,VWS V14.01,2013-02-24 04:20:00,
2013-02-23 22:25:00,7.2,-3.4,28.58,ENE,68,2.7,2.9,61,0.00,,,0.00,VWS V14.01,2013-02-24 04:25:00,
2013-02-23 22:30:00,7.0,-3.6,28.55,ENE,68,3.1,3.1,61,0.00,,,0.00,VWS V14.01,2013-02-24 04:30:00,
2013-02-23 22:35:00,6.4,-4.1,28.55,ENE,68,3.1,3.4,61,0.00,,,0.00,VWS V14.01,2013-02-24 04:35:00,
2013-02-23 22:40:00,6.3,-4.3,28.55,ENE,68,3.4,3.6,61,0.00,,,0.00,VWS V14.01,2013-02-24 04:40:00,
2013-02-23 22:45:00,6.3,-4.3,28.55,ENE,68,2.5,4.0,61,0.00,,,0.00,VWS V14.01,2013-02-24 04:45:00,
2013-02-23 22:50:00,6.3,-4.3,28.55,ENE,68,2.0,3.1,61,0.00,,,0.00,VWS V14.01,2013-02-24 04:50:00,
2013-02-23 22:55:00,6.1,-4.5,28.55,ENE,68,0.0,2.0,61,0.00,,,0.00,VWS V14.01,2013-02-24 04:55:00,
2013-02-23 23:00:00,5.7,-4.8,28.58,ESE,112,0.0,1.3,61,0.00,,,0.00,VWS V14.01,2013-02-24 05:00:00,
2013-02-23 23:05:00,5.0,-5.5,28.58,ESE,112,0.0,1.1,61,0.00,,,0.00,VWS V14.01,2013-02-24 05:05:00,
2013-02-23 23:10:00,4.5,-6.0,28.58,East,90,0.0,0.9,61,0.00,,,0.00,VWS V14.01,2013-02-24 05:10:00,
2013-02-23 23:15:00,4.5,-6.0,28.58,ESE,112,1.6,1.6,61,0.00,,,0.00,VWS V14.01,2013-02-24 05:15:00,
2013-02-23 23:20:00,4.5,-6.0,28.58,ESE,112,1.1,2.2,61,0.00,,,0.00,VWS V14.01,2013-02-24 05:20:00,
2013-02-23 23:25:00,5.4,-5.2,28.58,ENE,68,1.6,1.6,61,0.00,,,0.00,VWS V14.01,2013-02-24 05:25:00,
2013-02-23 23:30:00,5.5,-5.0,28.55,ENE,68,1.6,2.0,61,0.00,,,0.00,VWS V14.01,2013-02-24 05:30:00,
2013-02-23 23:35:00,6.3,-4.3,28.55,ESE,112,2.5,2.7,61,0.00,,,0.00,VWS V14.01,2013-02-24 05:35:00,
2013-02-23 23:40:00,9.0,-1.7,28.58,ENE,68,1.1,2.2,61,0.00,,,0.00,VWS V14.01,2013-02-24 05:40:00,
2013-02-23 23:45:00,8.6,-2.1,28.58,ESE,112,2.5,2.9,61,0.00,,,0.00,VWS V14.01,2013-02-24 05:45:00,
2013-02-23 23:50:00,8.6,-2.1,28.58,ESE,112,1.6,2.7,61,0.00,,,0.00,VWS V14.01,2013-02-24 05:50:00,
2013-02-23 23:55:00,8.4,-2.2,28.58,ESE,112,1.1,2.5,61,0.00,,,0.00,VWS V14.01,2013-02-24 05:55:00,